TimeMDT,TemperatureF,Dew PointF,Humidity,Sea Level PressureIn,VisibilityMPH,Wind Direction,Wind SpeedMPH,Gust SpeedMPH,PrecipitationIn,Events,Conditions,WindDirDegrees,DateUTC
12:53 AM,35.1,33.1,92,30.09,9.0,Calm,Calm,-,N/A,,Clear,0,2013-04-03 06:53:00
1:53 AM,33.1,30.9,92,30.08,10.0,West,4.6,-,N/A,,Clear,280,2013-04-03 07:53:00
2:53 AM,32.0,30.0,92,30.07,10.0,West,5.8,-,N/A,,Clear,270,2013-04-03 08:53:00
3:53 AM,33.1,30.0,89,30.06,10.0,WNW,3.5,-,N/A,,Clear,290,2013-04-03 09:53:00
4:53 AM,32.0,28.9,88,30.09,10.0,SSE,5.8,-,N/A,,Clear,150,2013-04-03 10:53:00
5:53 AM,30.0,28.0,92,30.12,10.0,Calm,Calm,-,N/A,,Clear,0,2013-04-03 11:53:00
6:06 AM,32.0,28.4,87,30.14,1.5,South,4.6,-,N/A,,Partly Cloudy,190,2013-04-03 12:06:00
6:08 AM,32.0,30.2,93,30.13,0.8,South,4.6,-,N/A,,Mist,190,2013-04-03 12:08:00
6:16 AM,32.0,30.2,93,30.14,0.2,SW,3.5,-,N/A,Fog,Fog,230,2013-04-03 12:16:00
6:35 AM,33.8,32.0,93,30.15,1.8,Calm,Calm,-,N/A,,Overcast,0,2013-04-03 12:35:00
6:38 AM,33.8,32.0,93,30.15,3.0,Calm,Calm,-,N/A,,Overcast,0,2013-04-03 12:38:00
6:53 AM,33.1,32.0,96,30.14,9.0,Calm,Calm,-,N/A,,Overcast,0,2013-04-03 12:53:00
7:53 AM,36.0,35.1,97,30.16,10.0,NW,4.6,-,N/A,,Overcast,320,2013-04-03 13:53:00
8:35 AM,37.4,35.6,93,30.18,10.0,NNW,4.6,-,N/A,,Overcast,330,2013-04-03 14:35:00
8:53 AM,39.0,37.0,93,30.17,10.0,NNW,5.8,-,N/A,,Overcast,330,2013-04-03 14:53:00
9:53 AM,41.0,37.0,86,30.19,10.0,WNW,3.5,-,N/A,,Overcast,300,2013-04-03 15:53:00
10:53 AM,43.0,37.0,80,30.18,10.0,NNE,3.5,-,N/A,,Overcast,20,2013-04-03 16:53:00
11:16 AM,44.6,37.4,76,30.20,10.0,Calm,Calm,-,N/A,,Overcast,0,2013-04-03 17:16:00
11:53 AM,48.0,39.0,71,30.19,10.0,NE,4.6,-,N/A,,Mostly Cloudy,40,2013-04-03 17:53:00
12:08 PM,48.2,39.2,71,30.21,10.0,Calm,Calm,-,N/A,,Scattered Clouds,0,2013-04-03 18:08:00
12:53 PM,50.0,39.0,66,30.17,10.0,East,3.5,-,N/A,,Clear,90,2013-04-03 18:53:00
1:53 PM,54.0,39.0,57,30.14,10.0,ENE,3.5,-,N/A,,Partly Cloudy,70,2013-04-03 19:53:00
2:53 PM,57.0,35.1,44,30.11,10.0,ESE,4.6,-,N/A,,Clear,110,2013-04-03 20:53:00
3:53 PM,60.1,34.0,38,30.08,10.0,Variable,3.5,-,N/A,,Clear,0,2013-04-03 21:53:00
4:53 PM,61.0,28.0,29,30.06,10.0,Calm,Calm,-,N/A,,Clear,0,2013-04-03 22:53:00
5:53 PM,61.0,21.0,21,30.06,10.0,WSW,5.8,-,N/A,,Partly Cloudy,250,2013-04-03 23:53:00
6:53 PM,60.1,24.1,25,30.06,10.0,SW,3.5,-,N/A,,Partly Cloudy,230,2013-04-04 00:53:00
7:53 PM,55.9,30.9,39,30.07,10.0,Calm,Calm,-,N/A,,Clear,0,2013-04-04 01:53:00
8:53 PM,51.1,33.1,50,30.09,10.0,WSW,6.9,-,N/A,,Clear,250,2013-04-04 02:53:00
9:53 PM,48.9,34.0,56,30.12,10.0,Calm,Calm,-,N/A,,Overcast,0,2013-04-04 03:53:00
10:53 PM,48.0,33.1,56,30.12,10.0,West,5.8,-,N/A,,Overcast,280,2013-04-04 04:53:00
11:53 PM,46.9,30.0,52,30.11,10.0,West,3.5,-,N/A,,Clear,260,2013-04-04 05:53:00